Location: Piotrkow Trybunalski
(51.4000°N, 19.6830°E)
Time: 15:59:11
(UTC+02:00)

A-11 Canister half - Pass Details

Date: 14 December 2023
Orbit: 1515 x 1684 km, 47.2° (Epoch: 04 October)

Event Time Altitude Azimuth Distance (km) Brightness Sun altitude
Exits shadow 05:50:43 10° 252° (WSW) 3,885 10.6 -15.7°
Maximum altitude 05:53:04 11° 238° (WSW) 3,810 10.7 -15.3°
Drops below altitude 10° 05:55:44 10° 222° (SW) 3,924 10.9 -14.9°
Sets 06:02:15 0° 192° (SSW) 4,923 11.8 -14.0°
